When you browse on this site, cookies collect data to enhance your experience and personalize the content and advertising you see.
Visit our Privacy Policy to learn more. By continuing to use the site, you agree to this use of cookies and data.
  • In United Kingdom
  • List of Countries
  • For 7 days
  • Water Temperature
  • Weather Map
  • Weather Widgets
  • user-avatar
    Login

    Hourly Weather Saarbrucken

    Today, 20 October, Sunday

    Time Temperature Precipitation Wind Pressure Humidity
    00:00 +13°C° 0 mm 1 mps 734 mmHg 98%
    01:00 +13°C° 1.9 mm 2 mps 733 mmHg 98%
    02:00 +13°C° 1.9 mm 2 mps 733 mmHg 98%
    03:00 +13°C° 1.9 mm 2 mps 733 mmHg 98%
    04:00 +13°C° 0.4 mm 2 mps 733 mmHg 97%
    05:00 +13°C° 0.4 mm 2 mps 733 mmHg 96%
    06:00 +13°C° 0.4 mm 2 mps 733 mmHg 95%
    07:00 +14°C° 0.1 mm 2 mps 733 mmHg 94%
    08:00 +14°C° 0.1 mm 2 mps 733 mmHg 92%
    09:00 +15°C° 0.1 mm 2 mps 733 mmHg 90%
    10:00 +16°C° 0 mm 2 mps 733 mmHg 87%
    11:00 +17°C° 0 mm 2 mps 733 mmHg 83%
    12:00 +18°C° 0 mm 2 mps 733 mmHg 80%
    13:00 +18°C° 0.1 mm 2 mps 733 mmHg 80%
    14:00 +18°C° 0.1 mm 2 mps 733 mmHg 81%
    15:00 +19°C° 0.1 mm 2 mps 732 mmHg 81%
    16:00 +18°C° 0.1 mm 2 mps 732 mmHg 84%
    17:00 +17°C° 0.1 mm 2 mps 732 mmHg 87%
    18:00 +16°C° 0.1 mm 2 mps 732 mmHg 89%
    19:00 +16°C° 0 mm 3 mps 733 mmHg 89%
    20:00 +14°C° 0 mm 3 mps 733 mmHg 89%
    21:00 +14°C° 0 mm 3 mps 733 mmHg 89%
    22:00 +14°C° 0 mm 3 mps 733 mmHg 90%
    23:00 +15°C° 0 mm 2 mps 734 mmHg 90%

    Tomorrow, 21 October, Monday

    Time Temperature Precipitation Wind Pressure Humidity
    00:00 +15°C° 0 mm 2 mps 734 mmHg 90%
    01:00 +14°C° 0 mm 3 mps 735 mmHg 88%
    02:00 +13°C° 0 mm 4 mps 736 mmHg 86%
    03:00 +13°C° 0 mm 5 mps 736 mmHg 84%
    04:00 +13°C° 0.1 mm 5 mps 737 mmHg 85%
    05:00 +12°C° 0.1 mm 4 mps 738 mmHg 86%
    06:00 +12°C° 0.1 mm 4 mps 739 mmHg 87%
    07:00 +12°C° 0 mm 4 mps 740 mmHg 85%
    08:00 +13°C° 0 mm 5 mps 740 mmHg 82%
    09:00 +13°C° 0 mm 5 mps 741 mmHg 80%
    10:00 +13°C° 0 mm 5 mps 741 mmHg 78%
    11:00 +13°C° 0 mm 5 mps 742 mmHg 76%
    12:00 +13°C° 0 mm 5 mps 742 mmHg 74%
    13:00 +13°C° 0 mm 5 mps 742 mmHg 76%
    14:00 +13°C° 0 mm 4 mps 743 mmHg 78%
    15:00 +12°C° 0 mm 4 mps 743 mmHg 80%
    16:00 +12°C° 0 mm 3 mps 743 mmHg 80%
    17:00 +12°C° 0 mm 3 mps 744 mmHg 81%
    18:00 +11°C° 0 mm 3 mps 744 mmHg 81%
    19:00 +12°C° 0.1 mm 2 mps 744 mmHg 83%
    20:00 +12°C° 0.1 mm 2 mps 745 mmHg 85%
    21:00 +12°C° 0.1 mm 2 mps 745 mmHg 87%
    22:00 +11°C° 0 mm 1 mps 745 mmHg 89%
    23:00 +11°C° 0 mm 1 mps 745 mmHg 91%

    Day after tomorrow, 22 October, Tuesday

    Time Temperature Precipitation Wind Pressure Humidity
    00:00 +11°C° 0 mm 1 mps 746 mmHg 92%
    01:00 +11°C° 0 mm 1 mps 746 mmHg 93%
    02:00 +11°C° 0 mm 1 mps 746 mmHg 93%
    03:00 +11°C° 0 mm 1 mps 746 mmHg 93%
    04:00 +11°C° 0 mm 1 mps 746 mmHg 93%
    05:00 +11°C° 0 mm 1 mps 746 mmHg 92%
    06:00 +11°C° 0 mm 1 mps 746 mmHg 92%
    07:00 +11°C° 0 mm 1 mps 746 mmHg 89%
    08:00 +12°C° 0 mm 2 mps 746 mmHg 86%
    09:00 +13°C° 0 mm 2 mps 746 mmHg 82%
    10:00 +14°C° 0 mm 2 mps 746 mmHg 77%
    11:00 +15°C° 0 mm 2 mps 745 mmHg 72%
    12:00 +16°C° 0 mm 2 mps 745 mmHg 67%
    13:00 +16°C° 0 mm 3 mps 745 mmHg 69%
    14:00 +16°C° 0 mm 3 mps 744 mmHg 71%
    15:00 +16°C° 0 mm 3 mps 744 mmHg 72%
    16:00 +14°C° 0 mm 3 mps 744 mmHg 75%
    17:00 +13°C° 0 mm 3 mps 744 mmHg 78%
    18:00 +11°C° 0 mm 4 mps 744 mmHg 81%
    19:00 +11°C° 0 mm 4 mps 743 mmHg 81%
    20:00 +11°C° 0 mm 4 mps 743 mmHg 81%
    21:00 +11°C° 0 mm 4 mps 743 mmHg 81%
    22:00 +11°C° 0 mm 4 mps 743 mmHg 83%
    23:00 +11°C° 0 mm 4 mps 742 mmHg 84%

    23 October, Wednesday

    Time Temperature Precipitation Wind Pressure Humidity
    00:00 +11°C° 0 mm 3 mps 742 mmHg 85%
    01:00 +11°C° 0 mm 3 mps 742 mmHg 86%
    02:00 +10°C° 0 mm 3 mps 741 mmHg 87%
    03:00 +10°C° 0 mm 3 mps 741 mmHg 88%
    04:00 +10°C° 0 mm 4 mps 740 mmHg 88%
    05:00 +10°C° 0 mm 4 mps 740 mmHg 89%
    06:00 +10°C° 0 mm 4 mps 739 mmHg 90%
    07:00 +11°C° 0 mm 4 mps 739 mmHg 87%
    08:00 +12°C° 0 mm 5 mps 739 mmHg 84%
    09:00 +14°C° 0 mm 5 mps 739 mmHg 81%
    10:00 +14°C° 0 mm 5 mps 738 mmHg 79%
    11:00 +15°C° 0 mm 6 mps 738 mmHg 77%
    12:00 +16°C° 0 mm 6 mps 737 mmHg 75%
    13:00 +16°C° 0 mm 5 mps 737 mmHg 76%
    14:00 +16°C° 0 mm 5 mps 736 mmHg 78%
    15:00 +17°C° 0 mm 4 mps 736 mmHg 79%
    16:00 +15°C° 0 mm 4 mps 735 mmHg 83%
    17:00 +14°C° 0 mm 4 mps 735 mmHg 88%
    18:00 +12°C° 0 mm 4 mps 734 mmHg 92%
    19:00 +12°C° 0 mm 4 mps 734 mmHg 93%
    20:00 +12°C° 0 mm 4 mps 734 mmHg 93%
    21:00 +12°C° 0 mm 3 mps 734 mmHg 93%
    22:00 +11°C° 0 mm 3 mps 734 mmHg 94%
    23:00 +12°C° 0 mm 2 mps 734 mmHg 95%

    24 October, Thursday

    Time Temperature Precipitation Wind Pressure Humidity
    00:00 +11°C° 0 mm 1 mps 734 mmHg 95%
    01:00 +11°C° 0 mm 1 mps 734 mmHg 96%
    02:00 +11°C° 0 mm 1 mps 734 mmHg 96%
    03:00 +10°C° 0 mm 1 mps 734 mmHg 96%
    04:00 +10°C° 0 mm 1 mps 734 mmHg 96%
    05:00 +10°C° 0 mm 1 mps 734 mmHg 97%
    06:00 +10°C° 0 mm 1 mps 734 mmHg 97%
    07:00 +12°C° 0 mm 2 mps 735 mmHg 93%
    08:00 +13°C° 0 mm 2 mps 735 mmHg 89%
    09:00 +15°C° 0 mm 2 mps 735 mmHg 85%
    10:00 +16°C° 0 mm 2 mps 735 mmHg 81%
    11:00 +18°C° 0 mm 3 mps 735 mmHg 76%
    12:00 +19°C° 0 mm 3 mps 735 mmHg 72%
    13:00 +19°C° 0 mm 3 mps 736 mmHg 73%
    14:00 +19°C° 0 mm 2 mps 736 mmHg 73%
    15:00 +19°C° 0 mm 2 mps 736 mmHg 74%
    16:00 +17°C° 0 mm 2 mps 736 mmHg 78%
    17:00 +16°C° 0 mm 2 mps 736 mmHg 82%
    18:00 +14°C° 0 mm 1 mps 736 mmHg 86%
    19:00 +14°C° 0 mm 1 mps 737 mmHg 88%
    20:00 +13°C° 0 mm 1 mps 737 mmHg 89%
    21:00 +13°C° 0 mm 1 mps 737 mmHg 91%
    22:00 +13°C° 0 mm 1 mps 737 mmHg 91%
    23:00 +12°C° 0 mm 1 mps 738 mmHg 91%

    25 October, Friday

    Time Temperature Precipitation Wind Pressure Humidity
    00:00 +12°C° 0 mm 1 mps 738 mmHg 91%
    01:00 +12°C° 0 mm 1 mps 738 mmHg 92%
    02:00 +11°C° 0 mm 0 mps 738 mmHg 92%
    03:00 +11°C° 0 mm 0 mps 738 mmHg 92%
    04:00 +11°C° 0 mm 0 mps 738 mmHg 92%
    05:00 +11°C° 0 mm 0 mps 738 mmHg 93%
    06:00 +11°C° 0 mm 1 mps 739 mmHg 93%
    07:00 +12°C° 0 mm 0 mps 739 mmHg 89%
    08:00 +13°C° 0 mm 0 mps 739 mmHg 86%
    09:00 +14°C° 0 mm 0 mps 740 mmHg 82%
    10:00 +15°C° 0 mm 0 mps 740 mmHg 78%
    11:00 +18°C° 0 mm 1 mps 740 mmHg 75%
    12:00 +19°C° 0 mm 1 mps 740 mmHg 71%
    13:00 +19°C° 0 mm 1 mps 740 mmHg 73%
    14:00 +19°C° 0 mm 1 mps 740 mmHg 75%
    15:00 +19°C° 0 mm 1 mps 739 mmHg 77%
    16:00 +16°C° 0 mm 1 mps 739 mmHg 81%
    17:00 +15°C° 0 mm 1 mps 739 mmHg 86%
    18:00 +14°C° 0 mm 1 mps 739 mmHg 91%
    19:00 +13°C° 0 mm 1 mps 739 mmHg 92%
    20:00 +13°C° 0 mm 1 mps 739 mmHg 94%
    21:00 +12°C° 0 mm 1 mps 739 mmHg 95%
    22:00 +12°C° 0 mm 1 mps 739 mmHg 95%
    23:00 +12°C° 0 mm 1 mps 739 mmHg 96%
    Show more